Regional Weather Roundup
Issued by NWS Upton, NY

Current Version | Previous Version | Text Only | Print | Product List | Glossary On
Versions: 1 2 3 4 5 6 7 8 9 10 11 12 13 14 15 16 17 18 19 20 21 22 23 24 25 26 27 28 29 30 31 32 33 34 35 36 37 38 39 40 41 42 43 44 45 46 47 48 49
000
ASUS41 KOKX 262005
RWROKX

REGIONAL WEATHER ROUNDUP
NATIONAL WEATHER SERVICE NEW YORK NY
300 PM EST MON JAN 26 2015

NOTE: "FAIR" INDICATES FEW OR NO CLOUDS BELOW 12,000 FEET WITH NO
SIGNIFICANT WEATHER AND/OR OBSTRUCTIONS TO VISIBILITY.

NYZ071-072-176-178-NJZ106-104-262100-
NEW YORK CITY METRO AREA


CITY           SKY/WX    TMP DP  RH WIND       PRES   REMARKS
CENTRAL PARK   HVY SNOW  24  19  81 NE13G20   29.88F VSB 1/4 WCI  12
LAGUARDIA APRT SNOW      23  21  92 NE14G21   29.88F VSB 1/4 WCI  11
KENNEDY INTL   LGT SNOW  24  20  84 N20G25    29.86F VSB 3/4 WCI  10
NEWARK/LIBERTY SNOW      22  19  89 N16       29.87F VSB 1/4 WCI   8
BRNX BOT. GARD   N/A    N/A N/A N/A NE7       29.90R
TETERBORO      SNOW      22  18  85 N8        29.87F VSB 1/2 WCI  12
$$

NYZ177-179-078>081-262100-
LONG ISLAND NEW YORK

CITY           SKY/WX    TMP DP  RH WIND       PRES   REMARKS
FARMINGDALE    SNOW      26  23  88 NE16G24   29.84F VSB 1/2 WCI  14
ISLIP          LGT SNOW  27  23  85 NE20G29   29.82F VSB 3/4 WCI  13
SHIRLEY        SNOW      28  24  85 NE10G20   29.86F VSB 1/2 WCI  19
WESTHAMPTON    SNOW      29  24  82 NE23G32   29.87F VSB 1/2 WCI  15
MONTAUK POINT    N/A     30  27  88 NE15G29   29.90F WCI  19
$$

NYZ052-065-067-262100-
HUDSON VALLEY

CITY           SKY/WX    TMP DP  RH WIND       PRES   REMARKS
WHITE PLAINS   LGT SNOW  22  18  85 NE12      29.85F VSB 3/4 WCI  10
NEWBURGH       LGT SNOW  18  14  86 NE14      29.92F FOG     WCI   4
MONTGOMERY     LGT SNOW  18  12  77 NE15      29.90F VSB 3/4 WCI   4
POUGHKEEPSIE   LGT SNOW  20  12  71 N9        29.93F WCI   9
ALBANY         FLURRIES  17  -1  45 N7        30.04R WCI   8
$$

NJZ001-105-106-008-010-013-015-019>022-104-262100-
NEW JERSEY

CITY           SKY/WX    TMP DP  RH WIND       PRES   REMARKS
NEWARK/LIBERTY SNOW      22  19  89 N16       29.87F VSB 1/4 WCI   8
TETERBORO      SNOW      22  18  85 N8        29.87F VSB 1/2 WCI  12
CALDWELL       LGT SNOW  21  18  88 NE8       29.88S VSB 1   WCI  11
MORRISTOWN     LGT SNOW  21  18  86 NE12G20   29.87F VSB 1   WCI   9
SOMERVILLE     SNOW      22  17  81 NE12G17   29.84S VSB 1/2 WCI  10
SUSSEX         SNOW      17  12  80 NE10G20   29.87F VSB 1/2 WCI   5
ANDOVER          N/A     16  12  84 NE8       29.86F WCI   5
TRENTON        LGT SNOW  23  18  81 NE14G24   29.81S VSB 3/4 WCI  11
MILLVILLE      CLOUDY    33  30  88 NE20G25   29.69F WCI  21
ATLANTIC CITY  LGT SNOW  32  30  92 NE22G28   29.70F FOG     WCI  19
WRIGHTSTOWN    CLOUDY    26  23  90 NE16      29.76F BLWGSNOWWCI  13
TOMS RIVER     CLOUDY    28  27  93 NE21G28   29.77F VSB 3/4 WCI  15
BELMAR         CLOUDY    27  19  74 NE15G22   29.80S WCI  15
$$

PAZ047>061-062-071-262100-
EASTERN PENNSYLVANIA

CITY           SKY/WX    TMP DP  RH WIND       PRES   REMARKS
PHILADELPHIA   LGT SNOW  28  23  81 NE22G30   29.79R WCI  14
ALLENTOWN      LGT SNOW  21  14  74 NE18      29.83F WCI   6
SCRANTON       LGT SNOW  22  13  68 NE13G20   29.81F WCI  10
$$

CTZ002-004>006-009-010-012-RIZ004-006-007-MAZ004-011-015-262100-
SOUTHERN NEW ENGLAND
 IN CT

CITY           SKY/WX    TMP DP  RH WIND       PRES   REMARKS
BRADLEY INTL   CLOUDY    21  10  62 N15       29.99F WCI   8
HARTFORD       LGT SNOW  21  12  68 N9        29.99F WCI  11
DANBURY        LGT SNOW  20  12  71 NE15G22   29.90F WCI   6
WTRBRY/OXFORD  LGT SNOW  18   7  62 NE13G20   29.88F WCI   4
BRIDGEPORT     LGT SNOW  23  19  85 NE18G28   29.89F FOG     WCI   9
MERIDEN        LGT SNOW  19  14  81 N9G17     29.95F VSB 1   WCI   8
NEW HAVEN      LGT SNOW  21  16  81 N17       29.90F VSB 1   WCI   7
CHESTER        LGT SNOW  25  21  86 NE9       29.91F VSB 3/4 WCI  15
GROTON         LGT SNOW  25  22  88 NE16G24   29.93F VSB 1   WCI  12
WILLIMANTIC    LGT SNOW  22  15  75 NE8       29.98F WCI  12

 IN RI

CITY           SKY/WX    TMP DP  RH WIND       PRES   REMARKS
PROVIDENCE     LGT SNOW  24  21  88 N13       29.99F VSB 1   WCI  12
BLOCK ISLAND     N/A     30  30 100 NE21G33   29.90S VSB 1   WCI  17
WESTERLY       LGT SNOW  26  23  88 NE10G18   29.94F VSB 3/4 WCI  16

 IN MA

CITY           SKY/WX    TMP DP  RH WIND       PRES   REMARKS
BOSTON         CLOUDY    28  21  75 NE18G28   30.05S WCI  15
WORCESTER      CLOUDY    17  11  77 NE12G20   29.96F WCI   4
WESTFIELD      CLOUDY    20   6  55 N13       30.00F WCI   7
PROVINCETOWN   CLOUDY    30  21  69 E16G25    30.02S WCI  19
NANTUCKET      LGT SNOW  33  28  81 E21G33    29.93F WCI  21
$$

ANZ330-335-338-340-345-350-353-355-262100-
COASTAL MARINE OBSERVATIONS


STATION/POSITION TIME  SKY/WX   TEMP    WIND        PRES    VSBY  WAVE
                                AIR SEA DIR/SP/G                  HT/PER
                 (UTC)          (F)     (DEG/KT/KT) (MB)    (MI)  (FT/S)
NY HARB ENTRANCE 2000            30 43   40/ 25/ 31 1008.8          8/ 7
4S FIRE IS       2000               38                N/A           7/ 6
20S FIRE ISLAND  1900               41              1008.5         10/ 7
23SW MTP         2000                                 N/A          10/ 7
HUDSON CANYON    NOT AVBL
EXECUTION ROCKS  2000            26 35   40/ 21/ 27   N/A
WESTERN LI SOUND 2000            25      50/ 21/ 25   N/A           3/ 5
CENTRAL LI SOUND 1900            27 36   60/ 23/ 29   N/A           3/ 4
EASTERN LI SOUND NOT AVBL
ROBBINS REEF     2000            24      30/ 20/ 23 1009.8
$$


>>>>>>>>>>>>>>>>>>>>>>>>>>>> KEY <<<<<<<<<<<<<<<<<<<<<<<<<<<
>                                                          <
>     SKY/WX - SKY CONDITION/PRESENT WEATHER               <
>     TMP    - TEMPERATURE IN FAHRENHEIT                   <
>     DP     - DEWPOINT IN FAHRENHEIT                      <
>     RH     - RELATIVE HUMIDITY IN PERCENT                <
>     WIND   - DIRECTION AND SPEED IN MPH                  <
>     PRES   - MEAN SEA LEVEL PRESSURE IN INCHES OF HG     <
>     WCI    - WIND CHILL INDEX                            <
>     VSB    - VISIBILITY IN MILES                         <
>     HX     - HEAT INDEX                                  <
>     TC     - TEMPERATURE IN CELSIUS                      <
>     VRB    - VARIABLE WIND DIRECTION                     <
>                                                          <
>>>>>>>>>>>>>>>>>>>>>>>>>>>> KEY <<<<<<<<<<<<<<<<<<<<<<<<<<<





USA.gov is the U.S. government's official web portal to all federal, state and local government web resources and services.